Location: Fornova de Taro
(44.7000°N, 10.1000°E)
Time: 20:29:33
(UTC+00:00)

USA 305 - Pass Details

Date: 26 May 2022
Orbit: 549 x 553 km, 54.0° (Epoch: 14 June)

Event Time Altitude Azimuth Distance (km) Brightness Sun altitude
Exits shadow 01:02:59 28° 274° (W) 1,059 4.0 -19.9°
Maximum altitude 01:04:50 48° 333° (NNW) 729 3.6 -19.7°
Drops below altitude 10° 01:08:51 10° 48° (NE) 1,827 6.5 -19.4°
Sets 01:11:09 0° 54° (NE) 2,723 7.5 -19.2°
